Location: Ballard
(38.3614°N, 94.1431°W)
Time: 02:57:33
(UTC-05:00)

Envisat - Visible Passes

Search period start: 21 October 2019 00:00
Search period end: 31 October 2019 00:00
Orbit: 764 x 766 km, 98.1° (Epoch: 21 October)

Date Brightness Start Highest point End Pass type
(mag) Time Alt. Az. Time Alt. Az. Time Alt. Az.
21 Oct 5.0 20:13:15 10° SSW 20:17:39 29° W 20:22:04 10° NW visible
22 Oct 6.7 06:47:07 10° ENE 06:48:23 11° E 06:49:39 10° ESE visible
22 Oct 3.4 19:35:43 10° S 19:40:45 69° WSW 19:45:50 10° NNW visible
23 Oct 3.1 18:59:09 10° SSE 19:04:03 52° ENE 19:08:59 10° N visible
23 Oct 5.9 20:40:12 10° SW 20:43:21 16° W 20:46:31 10° NW visible
24 Oct 4.5 20:01:39 10° SSW 20:06:19 37° W 20:11:02 10° NNW visible
25 Oct 3.0 19:24:25 10° SSE 19:29:29 87° WSW 19:34:36 10° NNW visible
26 Oct 3.4 18:48:07 10° SE 18:52:50 41° ENE 18:57:35 10° N visible
26 Oct 5.5 20:28:12 10° SW 20:31:59 21° W 20:35:48 10° NW visible
27 Oct 6.2 06:59:44 10° NE 07:02:47 16° E 07:05:50 10° SE visible
27 Oct 4.0 19:50:08 10° S 19:55:01 48° W 19:59:56 10° NNW visible
28 Oct 2.9 19:13:11 10° SSE 19:18:14 74° ENE 19:23:19 10° N visible
28 Oct 6.2 20:56:12 10° WSW 20:57:45 11° W 20:59:18 10° WNW visible
29 Oct 5.1 20:16:24 10° SSW 20:20:38 27° W 20:24:55 10° NW visible
30 Oct 6.4 06:49:25 10° ENE 06:51:24 12° E 06:53:23 10° ESE visible
30 Oct 3.5 19:38:43 10° S 19:43:43 62° W 19:48:46 10° NNW visible
